Warroad, MN

2:19 AM CDT on October 22, 2017 (GMT -0500)
Warroad International-Carlson

Weather History for KRRT - July, 2013

Change the Weather History Date:

Wednesday, July 17, 2013

  Actual Average Record
Temperature  
Mean Temperature 68 °F -  
Max Temperature 75 °F 81 °F 91 °F (1975)
Min Temperature 60 °F 57 °F 44 °F (1971)
Cooling Degree Days 2    
Growing Degree Days 18 (Base 50)    
Moisture  
Dew Point 59 °F    
Average Humidity 70    
Maximum Humidity 94    
Minimum Humidity 47    
Precipitation  
Precipitation 0.07 in - - ()
Sea Level Pressure  
Sea Level Pressure 30.19 in    
Wind  
Wind Speed 3 mph (NNE)    
Max Wind Speed 8 mph    
Max Gust Speed -    
Visibility 10 miles    
Events Rain    
Averages and records for this station are not official NWS values.
T = Trace of Precipitation, MM = Missing Value Source: NWS Daily Summary

Daily Weather History Graph

Daily Weather History Graph

Search for Another Location

Airport or City:

Trip Planner

Search our weather history database for the weather conditions in past years. The results will help you decide how hot, cold, wet, or windy it might be!

Date:

Astronomy

Jul. 17, 2013 Rise Set
Actual Time 5:36 AM CDT 9:18 PM CDT
Civil Twilight 4:55 AM CDT 9:58 PM CDT
Nautical Twilight 4:01 AM CDT 10:52 PM CDT
Astronomical Twilight 2:41 AM CDT 12:10 AM CDT
Moon 4:01 PM CDT (7/17) 12:54 AM CDT (7/17)
Length of Visible Light 17h 02m
Length of Day
15h 42m
Waxing Gibbous, 67% of the Moon is Illuminated
Jul 17
Waxing Gibbous
Jul 22
Full
Jul 29
Last Quarter
Aug 6
New
Aug 14
First Quarter

Hourly Weather History & Observations

Time (CDT) Temp. Dew Point Humidity Pressure Visibility Wind Dir Wind Speed Gust Speed Precip Events Conditions
12:14 AM 64.4 °F 60.8 °F 88% 30.19 in 10.0 mi Calm Calm - N/A   Overcast
12:34 AM 64.4 °F 60.8 °F 88% 30.19 in 10.0 mi WNW 3.5 mph - N/A   Overcast
12:54 AM 64.4 °F 60.8 °F 88% 30.20 in 10.0 mi WNW 4.6 mph - N/A   Overcast
1:14 AM 64.4 °F 62.6 °F 94% 30.20 in 10.0 mi WNW 4.6 mph - N/A   Overcast
1:34 AM 66.2 °F 62.6 °F 88% 30.20 in 10.0 mi NW 4.6 mph - N/A   Overcast
1:54 AM 66.2 °F 62.6 °F 88% 30.20 in 10.0 mi NW 3.5 mph - N/A   Overcast
2:14 AM 66.2 °F 62.6 °F 88% 30.20 in 10.0 mi NW 5.8 mph - N/A   Overcast
2:34 AM 66.2 °F 60.8 °F 83% 30.20 in 10.0 mi Calm Calm - 0.07 in Rain Light Rain
2:54 AM 64.4 °F 60.8 °F 88% 30.20 in 10.0 mi Calm Calm - 0.07 in   Overcast
3:14 AM 66.2 °F 62.6 °F 88% 30.20 in 10.0 mi North 4.6 mph - N/A   Overcast
3:34 AM 66.2 °F 60.8 °F 83% 30.21 in 10.0 mi North 5.8 mph - N/A   Overcast
3:54 AM 64.4 °F 59.0 °F 83% 30.20 in 10.0 mi North 5.8 mph - N/A   Overcast
4:14 AM 64.4 °F 57.2 °F 77% 30.20 in 10.0 mi North 4.6 mph - N/A   Overcast
4:34 AM 64.4 °F 57.2 °F 77% 30.21 in 10.0 mi North 4.6 mph - N/A   Mostly Cloudy
4:54 AM 62.6 °F 57.2 °F 82% 30.21 in 10.0 mi Calm Calm - N/A   Scattered Clouds
5:14 AM 62.6 °F 55.4 °F 77% 30.21 in 10.0 mi NNW 4.6 mph - N/A   Scattered Clouds
5:34 AM 60.8 °F 55.4 °F 82% 30.22 in 10.0 mi NW 4.6 mph - N/A   Overcast
5:54 AM 60.8 °F 55.4 °F 82% 30.23 in 10.0 mi NW 4.6 mph - N/A   Overcast
6:14 AM 60.8 °F 57.2 °F 88% 30.23 in 10.0 mi NNW 3.5 mph - N/A   Mostly Cloudy
6:34 AM 62.6 °F 55.4 °F 77% 30.24 in 10.0 mi Calm Calm - N/A   Overcast
6:54 AM 62.6 °F 57.2 °F 82% 30.24 in 10.0 mi NW 3.5 mph - N/A   Mostly Cloudy
7:14 AM 64.4 °F 57.2 °F 77% 30.24 in 10.0 mi NNW 4.6 mph - N/A   Clear
7:34 AM 66.2 °F 55.4 °F 68% 30.24 in 10.0 mi Calm Calm - N/A   Clear
7:54 AM 66.2 °F 57.2 °F 73% 30.25 in 10.0 mi North 5.8 mph - N/A   Clear
8:14 AM 68.0 °F 57.2 °F 68% 30.24 in 10.0 mi North 3.5 mph - N/A   Clear
8:34 AM 68.0 °F 59.0 °F 73% 30.23 in 10.0 mi NNE 4.6 mph - N/A   Clear
8:54 AM 68.0 °F 59.0 °F 73% 30.24 in 10.0 mi North 3.5 mph - N/A   Clear
9:14 AM 71.6 °F 60.8 °F 69% 30.25 in 10.0 mi North 3.5 mph - N/A   Clear
9:34 AM 71.6 °F 59.0 °F 64% 30.26 in 10.0 mi Calm Calm - N/A   Clear
9:54 AM 71.6 °F 60.8 °F 69% 30.24 in 10.0 mi ENE 4.6 mph - N/A   Clear
10:14 AM 73.4 °F 60.8 °F 65% 30.23 in 10.0 mi ENE 6.9 mph - N/A   Clear
10:34 AM 73.4 °F 60.8 °F 65% 30.23 in 10.0 mi NNE 5.8 mph - N/A   Clear
10:54 AM 73.4 °F 60.8 °F 65% 30.23 in 10.0 mi ENE 4.6 mph - N/A   Clear
11:14 AM 73.4 °F 59.0 °F 61% 30.23 in 10.0 mi East 5.8 mph - N/A   Clear
11:34 AM 73.4 °F 57.2 °F 57% 30.24 in 10.0 mi ENE 4.6 mph - N/A   Clear
11:54 AM 73.4 °F 55.4 °F 53% 30.24 in 10.0 mi ENE 6.9 mph - N/A   Clear
12:14 PM 73.4 °F 55.4 °F 53% 30.24 in 10.0 mi East 5.8 mph - N/A   Clear
12:34 PM 73.4 °F 55.4 °F 53% 30.24 in 10.0 mi East 5.8 mph - N/A   Clear
12:54 PM 75.2 °F 57.2 °F 53% 30.23 in 10.0 mi East 4.6 mph - N/A   Clear
1:14 PM 75.2 °F 55.4 °F 50% 30.22 in 10.0 mi East 5.8 mph - N/A   Clear
1:34 PM 75.2 °F 53.6 °F 47% 30.22 in 10.0 mi East 3.5 mph - N/A   Clear
1:54 PM 75.2 °F 55.4 °F 50% 30.22 in 10.0 mi East 4.6 mph - N/A   Clear
2:14 PM 75.2 °F 55.4 °F 50% 30.21 in 10.0 mi ENE 3.5 mph - N/A   Clear
2:34 PM 75.2 °F 57.2 °F 53% 30.20 in 10.0 mi East 4.6 mph - N/A   Clear
2:54 PM 75.2 °F 57.2 °F 53% 30.20 in 10.0 mi East 5.8 mph - N/A   Clear
3:14 PM 75.2 °F 57.2 °F 53% 30.19 in 10.0 mi East 5.8 mph - N/A   Clear
3:34 PM 75.2 °F 59.0 °F 57% 30.19 in 10.0 mi ESE 4.6 mph - N/A   Clear
3:54 PM 75.2 °F 59.0 °F 57% 30.19 in 10.0 mi ESE 3.5 mph - N/A   Clear
4:14 PM 75.2 °F 60.8 °F 61% 30.19 in 10.0 mi SE 3.5 mph - N/A   Clear
4:34 PM 75.2 °F 60.8 °F 61% 30.18 in 10.0 mi SSE 5.8 mph - N/A   Scattered Clouds
4:54 PM 75.2 °F 60.8 °F 61% 30.18 in 10.0 mi SSE 3.5 mph - N/A   Clear
5:14 PM 75.2 °F 59.0 °F 57% 30.18 in 10.0 mi Calm Calm - N/A   Clear
5:34 PM 75.2 °F 60.8 °F 61% 30.18 in 10.0 mi Calm Calm - N/A   Mostly Cloudy
5:54 PM 75.2 °F 60.8 °F 61% 30.17 in 10.0 mi SSW 3.5 mph - N/A   Mostly Cloudy
6:14 PM 75.2 °F 60.8 °F 61% 30.16 in 10.0 mi SW 3.5 mph - N/A   Overcast
6:34 PM 73.4 °F 60.8 °F 65% 30.15 in 10.0 mi Calm Calm - N/A   Overcast
6:54 PM 73.4 °F 60.8 °F 65% 30.15 in 10.0 mi Calm Calm - N/A   Mostly Cloudy
7:14 PM 73.4 °F 62.6 °F 69% 30.15 in 10.0 mi Calm Calm - N/A   Mostly Cloudy
7:34 PM 73.4 °F 62.6 °F 69% 30.15 in 10.0 mi Calm Calm - N/A   Mostly Cloudy
7:54 PM 73.4 °F 62.6 °F 69% 30.14 in 10.0 mi Calm Calm - N/A   Mostly Cloudy
8:14 PM 73.4 °F 62.6 °F 69% 30.14 in 10.0 mi Calm Calm - N/A   Scattered Clouds
8:34 PM 73.4 °F 62.6 °F 69% 30.12 in 10.0 mi North 3.5 mph - N/A   Scattered Clouds
8:54 PM 71.6 °F 62.6 °F 73% 30.14 in 10.0 mi Calm Calm - N/A Rain Light Rain
9:14 PM 71.6 °F 62.6 °F 73% 30.14 in 10.0 mi WNW 3.5 mph - N/A   Scattered Clouds
9:34 PM 69.8 °F 62.6 °F 78% 30.13 in 10.0 mi Calm Calm - N/A   Scattered Clouds
9:54 PM 69.8 °F 62.6 °F 78% 30.13 in 10.0 mi Calm Calm - N/A   Scattered Clouds
10:14 PM 69.8 °F 62.6 °F 78% 30.13 in 10.0 mi Calm Calm - N/A   Mostly Cloudy
10:34 PM 68.0 °F 62.6 °F 83% 30.12 in 10.0 mi Calm Calm - N/A   Scattered Clouds
10:54 PM 68.0 °F 60.8 °F 78% 30.10 in 10.0 mi NE 4.6 mph - N/A   Scattered Clouds
11:14 PM 69.8 °F 59.0 °F 68% 30.11 in 10.0 mi Calm Calm - N/A   Clear
11:34 PM 69.8 °F 60.8 °F 73% 30.11 in 10.0 mi Calm Calm - N/A   Scattered Clouds
11:54 PM 71.6 °F 57.2 °F 60% 30.08 in 10.0 mi ENE 8.1 mph - N/A   Mostly Cloudy